This demonstration page uses our WeatherBlox Daily Observations layout. Learn more.

Left ArrowRight Arrow

Hourly Observations for February 21, 2019

Temp ( °F °C ) Dew Point ( °F °C ) Humidity (%) Winds ( mph kmh ) Pressure ( in mb ) Visibility ( mi km ) Precip ( " mm )
12:52 am 00:52 Clear 15 -9.4 9 -12.8 77 77 SSE 3 6 30.04 1017 8 13 0.00 0.00
1:52 am 01:52 Clear 13 -10.6 9 -12.8 84 84 SE 3 6 30.08 1019 8 13 0.00 0.00
2:52 am 02:52 Clear 8 -13.3 6 -14.4 92 92 Calm 30.09 1019 8 13 0.00 0.00
3:52 am 03:52 Clear 10 -12.2 6 -14.4 84 84 SSE 6 9 30.12 1020 7 11 0.00 0.00
4:52 am 04:52 Clear 12 -11.1 8 -13.3 84 84 SSW 3 6 30.13 1020 8 13 0.00 0.00
5:52 am 05:52 Clear 9 -12.8 5 -15 84 84 SE 6 9 30.15 1021 8 13 0.00 0.00
6:52 am 06:52 Mostly Clear with Patchy Fog 8 -13.3 4 -15.6 83 83 SSE 3 6 30.18 1022 7 11 0.00 0.00
7:52 am 07:52 Partly Cloudy with Mist and Fog 5 -15 2 -16.7 87 87 Calm 30.22 1024 3 4 0.00 0.00
8:16 am 08:16 Mostly Cloudy with Freezing Fog 7 -13.9 3 -16.1 84 84 VRB 3 6 30.30 1026 5 8 0.00 0.00
8:20 am 08:20 Partly Cloudy with Freezing Fog 6 -14.4 2 -16.7 83 83 N 6 9 30.30 1026 5 8 0.00 0.00
8:32 am 08:32 Mostly Cloudy with Freezing Fog 5 -15 1 -17.2 83 83 N 6 9 30.31 1026 5 8 0.00 0.00
8:52 am 08:52 Partly Cloudy with Mist and Fog 8 -13.3 3 -16.1 80 80 N 8 13 30.24 1024 4 6 0.00 0.00
9:52 am 09:52 Partly Cloudy with Mist and Fog 16 -8.9 12 -11.1 84 84 Calm 30.26 1025 4 6 0.00 0.00
10:52 am 10:52 Hazy 19 -7.2 11 -11.7 71 71 N 3 6 30.27 1025 5 8 0.00 0.00
11:52 am 11:52 Mostly Cloudy with Haze 22 -5.6 13 -10.6 68 68 N 9 15 30.27 1025 6 10 0.00 0.00
12:52 pm 12:52 Partly Cloudy 25 -3.9 14 -10 63 63 NNW 9 15 30.25 1024 7 11 0.00 0.00
1:52 pm 13:52 Mostly Sunny 27 -2.8 16 -8.9 63 63 N 12 19 30.22 1024 9 14 0.00 0.00
2:52 pm 14:52 Mostly Sunny 30 -1.1 17 -8.3 58 58 N 8 13 30.22 1023 10 16 0.00 0.00
3:52 pm 15:52 Partly Cloudy 30 -1.1 15 -9.4 54 54 E 8 13 30.24 1024 10 16 0.00 0.00
4:52 pm 16:52 Cloudy 30 -1.1 15 -9.4 54 54 E 7 11 30.27 1025 10 16 0.00 0.00
5:52 pm 17:52 Cloudy 28 -2.2 16 -8.9 60 60 ENE 8 13 30.26 1025 10 16 0.00 0.00
6:52 pm 18:52 Cloudy 29 -1.7 16 -8.9 58 58 E 3 6 30.27 1025 10 16 0.00 0.00
7:52 pm 19:52 Cloudy 29 -1.7 16 -8.9 58 58 Calm 30.30 1026 10 16 0.00 0.00
8:52 pm 20:52 Cloudy 27 -2.8 18 -7.8 69 69 N 8 13 30.32 1027 10 16 0.00 0.00
9:52 pm 21:52 Cloudy 26 -3.3 18 -7.8 71 71 N 10 17 30.33 1027 10 16 0.00 0.00
10:52 pm 22:52 Mostly Cloudy 25 -3.9 17 -8.3 72 72 Calm 30.31 1027 10 16 0.00 0.00
11:52 pm 23:52 Mostly Cloudy 23 -5 16 -8.9 74 74 NNW 5 7 30.33 1027 10 16 0.00 0.00

Powered by AerisWeather